Time,TemperatureF,DewpointF,PressureIn,WindDirection,WindDirectionDegrees,WindSpeedMPH,WindSpeedGustMPH,Humidity,HourlyPrecipIn,Conditions,Clouds,dailyrainin,SoftwareType,DateUTC
2013-12-16 00:01:00,20.1,13.3,30.50,East,90,0.0,0.0,75,0.00,,,0.00,WUHU216HW,2013-12-16 07:01:00,
2013-12-16 00:06:00,20.1,13.3,30.50,East,90,0.0,0.0,75,0.00,,,0.00,WUHU216HW,2013-12-16 07:06:00,
2013-12-16 00:11:00,20.3,13.8,30.50,East,90,0.0,0.0,76,0.00,,,0.00,WUHU216HW,2013-12-16 07:11:00,
2013-12-16 00:16:00,20.3,13.8,30.50,East,90,0.0,0.0,76,0.00,,,0.00,WUHU216HW,2013-12-16 07:16:00,
2013-12-16 00:21:00,20.3,13.5,30.50,East,90,0.0,0.0,75,0.00,,,0.00,WUHU216HW,2013-12-16 07:21:00,
2013-12-16 00:26:00,20.4,13.7,30.50,ESE,113,0.0,0.0,75,0.00,,,0.00,WUHU216HW,2013-12-16 07:26:00,
2013-12-16 00:31:00,20.4,13.7,30.50,East,90,0.0,0.0,75,0.00,,,0.00,WUHU216HW,2013-12-16 07:31:00,
2013-12-16 00:36:00,20.4,13.7,30.50,East,90,0.0,0.0,75,0.00,,,0.00,WUHU216HW,2013-12-16 07:36:00,
2013-12-16 00:41:00,20.1,13.5,30.50,East,90,0.0,0.0,75,0.00,,,0.00,WUHU216HW,2013-12-16 07:41:00,
2013-12-16 00:46:00,20.1,13.6,30.50,East,90,0.0,0.0,76,0.00,,,0.00,WUHU216HW,2013-12-16 07:46:00,
2013-12-16 00:51:00,20.1,13.3,30.50,East,90,0.0,0.0,75,0.00,,,0.00,WUHU216HW,2013-12-16 07:51:00,
2013-12-16 00:56:00,19.9,13.1,30.50,East,90,0.0,0.0,75,0.00,,,0.00,WUHU216HW,2013-12-16 07:56:00,
2013-12-16 01:01:00,19.9,13.1,30.50,East,90,0.0,0.0,75,0.00,,,0.00,WUHU216HW,2013-12-16 08:01:00,
2013-12-16 01:06:00,19.9,13.1,30.50,East,90,0.0,0.0,75,0.00,,,0.00,WUHU216HW,2013-12-16 08:06:00,
2013-12-16 01:11:00,19.9,13.4,30.50,East,90,0.0,0.0,76,0.00,,,0.00,WUHU216HW,2013-12-16 08:11:00,
2013-12-16 01:16:00,19.9,13.4,30.50,ESE,113,0.0,0.0,76,0.00,,,0.00,WUHU216HW,2013-12-16 08:16:00,
2013-12-16 01:21:00,19.9,13.4,30.50,East,90,0.0,0.0,76,0.00,,,0.00,WUHU216HW,2013-12-16 08:21:00,
2013-12-16 01:26:00,19.9,13.4,30.50,East,90,0.0,0.0,76,0.00,,,0.00,WUHU216HW,2013-12-16 08:26:00,
2013-12-16 01:31:00,19.9,13.4,30.50,East,90,0.0,0.0,76,0.00,,,0.00,WUHU216HW,2013-12-16 08:31:00,
2013-12-16 01:36:00,19.9,13.4,30.50,East,90,0.0,0.0,76,0.00,,,0.00,WUHU216HW,2013-12-16 08:36:00,
2013-12-16 01:41:00,19.9,13.4,30.50,ESE,113,0.0,0.0,76,0.00,,,0.00,WUHU216HW,2013-12-16 08:41:00,
2013-12-16 01:46:00,19.9,13.4,30.50,East,90,0.0,0.0,76,0.00,,,0.00,WUHU216HW,2013-12-16 08:46:00,
2013-12-16 01:51:00,19.9,13.4,30.50,East,90,0.0,0.0,76,0.00,,,0.00,WUHU216HW,2013-12-16 08:51:00,
2013-12-16 01:56:00,19.9,13.4,30.50,East,90,0.0,0.0,76,0.00,,,0.00,WUHU216HW,2013-12-16 08:56:00,
2013-12-16 02:01:00,19.9,13.4,30.49,ESE,113,0.0,0.0,76,0.00,,,0.00,WUHU216HW,2013-12-16 09:01:00,
2013-12-16 02:06:00,19.9,13.4,30.50,ESE,113,0.0,0.0,76,0.00,,,0.00,WUHU216HW,2013-12-16 09:06:00,
2013-12-16 02:11:00,19.9,13.4,30.50,ESE,113,0.0,0.0,76,0.00,,,0.00,WUHU216HW,2013-12-16 09:11:00,
2013-12-16 02:16:00,19.9,13.4,30.50,East,90,0.0,0.0,76,0.00,,,0.00,WUHU216HW,2013-12-16 09:16:00,
2013-12-16 02:21:00,19.7,13.3,30.50,East,90,0.0,0.0,76,0.00,,,0.00,WUHU216HW,2013-12-16 09:21:00,
2013-12-16 02:26:00,19.5,13.1,30.50,East,90,0.0,0.0,76,0.00,,,0.00,WUHU216HW,2013-12-16 09:26:00,
2013-12-16 02:31:00,19.4,12.9,30.50,East,90,0.0,0.0,76,0.00,,,0.00,WUHU216HW,2013-12-16 09:31:00,
2013-12-16 02:36:00,19.2,12.7,30.50,East,90,0.0,0.0,76,0.00,,,0.00,WUHU216HW,2013-12-16 09:36:00,
2013-12-16 02:41:00,19.4,12.9,30.50,East,90,0.0,0.0,76,0.00,,,0.00,WUHU216HW,2013-12-16 09:41:00,
2013-12-16 02:46:00,19.4,12.9,30.50,East,90,0.0,0.0,76,0.00,,,0.00,WUHU216HW,2013-12-16 09:46:00,
2013-12-16 02:51:00,19.4,12.9,30.50,East,90,0.0,0.0,76,0.00,,,0.00,WUHU216HW,2013-12-16 09:51:00,
2013-12-16 02:56:00,19.5,13.1,30.50,ESE,113,0.0,0.0,76,0.00,,,0.00,WUHU216HW,2013-12-16 09:56:00,
2013-12-16 03:01:00,19.5,13.1,30.50,ESE,113,0.0,0.0,76,0.00,,,0.00,WUHU216HW,2013-12-16 10:01:00,
2013-12-16 03:06:00,19.5,13.1,30.50,ESE,113,0.0,0.0,76,0.00,,,0.00,WUHU216HW,2013-12-16 10:06:00,
2013-12-16 03:11:00,19.5,13.1,30.49,East,90,0.0,0.0,76,0.00,,,0.00,WUHU216HW,2013-12-16 10:11:00,
2013-12-16 03:16:00,19.5,13.1,30.49,ESE,113,0.0,0.0,76,0.00,,,0.00,WUHU216HW,2013-12-16 10:16:00,
2013-12-16 03:21:00,19.5,13.1,30.50,East,90,0.0,0.0,76,0.00,,,0.00,WUHU216HW,2013-12-16 10:21:00,
2013-12-16 03:26:00,19.4,12.9,30.49,East,90,0.0,0.0,76,0.00,,,0.00,WUHU216HW,2013-12-16 10:26:00,
2013-12-16 03:31:00,19.2,12.7,30.49,ESE,113,0.0,0.0,76,0.00,,,0.00,WUHU216HW,2013-12-16 10:31:00,
2013-12-16 03:36:00,19.2,13.0,30.49,East,90,0.0,0.0,77,0.00,,,0.00,WUHU216HW,2013-12-16 10:36:00,
2013-12-16 03:41:00,19.2,13.0,30.49,ESE,113,0.0,0.0,77,0.00,,,0.00,WUHU216HW,2013-12-16 10:41:00,
2013-12-16 03:46:00,18.8,12.7,30.48,East,90,0.0,0.0,77,0.00,,,0.00,WUHU216HW,2013-12-16 10:46:00,
2013-12-16 03:51:00,18.6,12.5,30.49,East,90,0.0,0.0,77,0.00,,,0.00,WUHU216HW,2013-12-16 10:51:00,
2013-12-16 03:56:00,18.6,12.5,30.49,East,90,0.0,0.0,77,0.00,,,0.00,WUHU216HW,2013-12-16 10:56:00,
2013-12-16 04:01:00,18.6,12.5,30.48,East,90,0.0,0.0,77,0.00,,,0.00,WUHU216HW,2013-12-16 11:01:00,
2013-12-16 04:06:00,18.5,12.3,30.48,East,90,0.0,0.0,77,0.00,,,0.00,WUHU216HW,2013-12-16 11:06:00,
2013-12-16 04:11:00,18.3,12.2,30.49,East,90,0.0,0.0,77,0.00,,,0.00,WUHU216HW,2013-12-16 11:11:00,
2013-12-16 04:16:00,18.3,12.2,30.48,ESE,113,0.0,0.0,77,0.00,,,0.00,WUHU216HW,2013-12-16 11:16:00,
2013-12-16 04:21:00,18.3,12.2,30.48,ESE,113,0.0,0.0,77,0.00,,,0.00,WUHU216HW,2013-12-16 11:21:00,
2013-12-16 04:26:00,18.3,12.2,30.48,East,90,0.0,0.0,77,0.00,,,0.00,WUHU216HW,2013-12-16 11:26:00,
2013-12-16 04:31:00,18.3,12.5,30.48,ESE,113,0.0,0.0,78,0.00,,,0.00,WUHU216HW,2013-12-16 11:31:00,
2013-12-16 04:36:00,18.1,12.3,30.48,East,90,0.0,0.0,78,0.00,,,0.00,WUHU216HW,2013-12-16 11:36:00,
2013-12-16 04:41:00,17.7,11.9,30.48,East,90,0.0,0.0,78,0.00,,,0.00,WUHU216HW,2013-12-16 11:41:00,
2013-12-16 04:46:00,17.9,12.1,30.48,East,90,0.0,0.0,78,0.00,,,0.00,WUHU216HW,2013-12-16 11:46:00,
2013-12-16 04:51:00,17.9,12.1,30.48,ESE,113,0.0,0.0,78,0.00,,,0.00,WUHU216HW,2013-12-16 11:51:00,
2013-12-16 04:56:00,18.1,12.3,30.48,East,90,0.0,0.0,78,0.00,,,0.00,WUHU216HW,2013-12-16 11:56:00,
2013-12-16 05:01:00,17.9,12.1,30.48,ESE,113,0.0,0.0,78,0.00,,,0.00,WUHU216HW,2013-12-16 12:01:00,
2013-12-16 05:06:00,18.1,12.3,30.47,ESE,113,0.0,0.0,78,0.00,,,0.00,WUHU216HW,2013-12-16 12:06:00,
2013-12-16 05:11:00,17.7,11.9,30.47,ESE,113,0.0,0.0,78,0.00,,,0.00,WUHU216HW,2013-12-16 12:11:00,
2013-12-16 05:16:00,17.7,11.6,30.47,ESE,113,0.0,0.0,77,0.00,,,0.00,WUHU216HW,2013-12-16 12:16:00,
2013-12-16 05:21:00,17.4,11.6,30.47,ESE,113,0.0,0.0,78,0.00,,,0.00,WUHU216HW,2013-12-16 12:21:00,
2013-12-16 05:26:00,17.4,11.6,30.47,ESE,113,0.0,0.0,78,0.00,,,0.00,WUHU216HW,2013-12-16 12:26:00,
2013-12-16 05:31:00,17.6,11.8,30.47,ESE,113,0.0,0.0,78,0.00,,,0.00,WUHU216HW,2013-12-16 12:31:00,
2013-12-16 05:36:00,17.6,11.8,30.47,ESE,113,0.0,0.0,78,0.00,,,0.00,WUHU216HW,2013-12-16 12:36:00,
2013-12-16 05:41:00,17.7,11.9,30.47,ESE,113,0.0,0.0,78,0.00,,,0.00,WUHU216HW,2013-12-16 12:41:00,
2013-12-16 05:46:00,17.7,11.9,30.47,ESE,113,0.0,0.0,78,0.00,,,0.00,WUHU216HW,2013-12-16 12:46:00,
2013-12-16 05:51:00,17.6,11.8,30.47,ESE,113,0.0,0.0,78,0.00,,,0.00,WUHU216HW,2013-12-16 12:51:00,
2013-12-16 05:56:00,17.4,11.6,30.47,ESE,113,0.0,0.0,78,0.00,,,0.00,WUHU216HW,2013-12-16 12:56:00,
2013-12-16 06:01:00,17.4,11.6,30.47,ESE,113,0.0,0.0,78,0.00,,,0.00,WUHU216HW,2013-12-16 13:01:00,
2013-12-16 06:06:00,17.4,11.6,30.47,ESE,113,0.0,0.0,78,0.00,,,0.00,WUHU216HW,2013-12-16 13:06:00,
2013-12-16 06:11:00,17.4,11.6,30.47,East,90,0.0,0.0,78,0.00,,,0.00,WUHU216HW,2013-12-16 13:11:00,
2013-12-16 06:16:00,17.4,11.6,30.47,ESE,113,0.0,0.0,78,0.00,,,0.00,WUHU216HW,2013-12-16 13:16:00,
2013-12-16 06:21:00,17.4,11.9,30.47,East,90,0.0,0.0,79,0.00,,,0.00,WUHU216HW,2013-12-16 13:21:00,
2013-12-16 06:26:00,17.4,11.9,30.48,East,90,0.0,0.0,79,0.00,,,0.00,WUHU216HW,2013-12-16 13:26:00,
2013-12-16 06:31:00,17.2,11.7,30.48,East,90,0.0,0.0,79,0.00,,,0.00,WUHU216HW,2013-12-16 13:31:00,
2013-12-16 06:36:00,17.2,11.7,30.48,East,90,0.0,0.0,79,0.00,,,0.00,WUHU216HW,2013-12-16 13:36:00,
2013-12-16 06:41:00,17.2,11.7,30.47,East,90,0.0,0.0,79,0.00,,,0.00,WUHU216HW,2013-12-16 13:41:00,
2013-12-16 06:46:00,17.4,11.9,30.48,East,90,0.0,0.0,79,0.00,,,0.00,WUHU216HW,2013-12-16 13:46:00,
2013-12-16 06:51:00,17.4,11.9,30.48,East,90,0.0,0.0,79,0.00,,,0.00,WUHU216HW,2013-12-16 13:51:00,
2013-12-16 06:56:00,17.4,11.9,30.48,East,90,0.0,0.0,79,0.00,,,0.00,WUHU216HW,2013-12-16 13:56:00,
2013-12-16 07:01:00,17.4,11.9,30.48,ESE,113,0.0,0.0,79,0.00,,,0.00,WUHU216HW,2013-12-16 14:01:00,
2013-12-16 07:06:00,17.4,11.9,30.48,East,90,0.0,0.0,79,0.00,,,0.00,WUHU216HW,2013-12-16 14:06:00,
2013-12-16 07:11:00,17.4,11.9,30.49,ESE,113,0.0,0.0,79,0.00,,,0.00,WUHU216HW,2013-12-16 14:11:00,
2013-12-16 07:16:00,17.4,11.9,30.49,ESE,113,0.0,0.0,79,0.00,,,0.00,WUHU216HW,2013-12-16 14:16:00,
2013-12-16 07:21:00,17.4,11.9,30.49,ESE,113,0.0,0.0,79,0.00,,,0.00,WUHU216HW,2013-12-16 14:21:00,
2013-12-16 07:26:00,17.4,11.9,30.49,ESE,113,0.0,0.0,79,0.00,,,0.00,WUHU216HW,2013-12-16 14:26:00,
2013-12-16 07:31:00,17.4,11.9,30.50,ESE,113,0.0,0.0,79,0.00,,,0.00,WUHU216HW,2013-12-16 14:31:00,
2013-12-16 07:36:00,17.4,11.9,30.49,ESE,113,0.0,0.0,79,0.00,,,0.00,WUHU216HW,2013-12-16 14:36:00,
2013-12-16 07:41:00,17.4,11.6,30.50,ESE,113,0.0,0.0,78,0.00,,,0.00,WUHU216HW,2013-12-16 14:41:00,
2013-12-16 07:46:00,17.4,11.6,30.50,ESE,113,0.0,0.0,78,0.00,,,0.00,WUHU216HW,2013-12-16 14:46:00,
2013-12-16 07:51:00,17.4,11.6,30.50,ESE,113,0.0,0.0,78,0.00,,,0.00,WUHU216HW,2013-12-16 14:51:00,
2013-12-16 07:56:00,17.4,11.9,30.50,ESE,113,0.0,0.0,79,0.00,,,0.00,WUHU216HW,2013-12-16 14:56:00,
2013-12-16 08:01:00,17.4,11.9,30.51,ESE,113,0.0,0.0,79,0.00,,,0.00,WUHU216HW,2013-12-16 15:01:00,
2013-12-16 08:06:00,17.7,12.2,30.51,South,180,0.0,0.0,79,0.00,,,0.00,WUHU216HW,2013-12-16 15:06:00,
2013-12-16 08:11:00,17.9,12.4,30.51,SE,135,0.0,0.0,79,0.00,,,0.00,WUHU216HW,2013-12-16 15:11:00,
2013-12-16 08:16:00,17.9,12.4,30.50,SE,135,0.0,0.0,79,0.00,,,0.00,WUHU216HW,2013-12-16 15:16:00,
2013-12-16 08:21:00,18.1,12.6,30.51,SE,135,0.0,0.0,79,0.00,,,0.00,WUHU216HW,2013-12-16 15:21:00,
2013-12-16 08:26:00,18.6,13.2,30.51,SE,135,0.0,0.0,80,0.00,,,0.00,WUHU216HW,2013-12-16 15:26:00,
2013-12-16 08:31:00,18.8,13.6,30.51,SE,135,0.0,0.0,80,0.00,,,0.00,WUHU216HW,2013-12-16 15:31:00,
2013-12-16 08:36:00,19.2,14.0,30.51,SE,135,0.0,0.0,80,0.00,,,0.00,WUHU216HW,2013-12-16 15:36:00,
2013-12-16 08:41:00,19.9,14.9,30.52,SE,135,0.0,0.0,81,0.00,,,0.00,WUHU216HW,2013-12-16 15:41:00,
2013-12-16 08:46:00,20.8,15.6,30.52,SE,135,0.0,0.0,80,0.00,,,0.00,WUHU216HW,2013-12-16 15:46:00,
2013-12-16 08:51:00,21.7,16.5,30.51,SE,135,0.0,0.0,80,0.00,,,0.00,WUHU216HW,2013-12-16 15:51:00,
2013-12-16 08:56:00,22.8,17.2,30.52,SE,135,2.0,2.0,79,0.00,,,0.00,WUHU216HW,2013-12-16 15:56:00,
2013-12-16 09:01:00,23.5,17.3,30.52,SE,135,0.0,2.0,77,0.00,,,0.00,WUHU216HW,2013-12-16 16:01:00,
2013-12-16 09:06:00,24.0,17.5,30.51,SE,135,0.0,2.0,76,0.00,,,0.00,WUHU216HW,2013-12-16 16:06:00,
2013-12-16 09:11:00,25.1,18.6,30.52,SSW,203,1.5,1.5,76,0.00,,,0.00,WUHU216HW,2013-12-16 16:11:00,
2013-12-16 09:16:00,25.5,18.6,30.52,SSW,203,0.0,1.5,75,0.00,,,0.00,WUHU216HW,2013-12-16 16:16:00,
2013-12-16 09:21:00,26.4,19.4,30.52,SSW,203,0.0,1.5,75,0.00,,,0.00,WUHU216HW,2013-12-16 16:21:00,
2013-12-16 09:26:00,27.6,20.7,30.53,SSW,203,0.0,0.0,75,0.00,,,0.00,WUHU216HW,2013-12-16 16:26:00,
2013-12-16 09:31:00,28.2,20.9,30.52,South,180,0.0,0.0,74,0.00,,,0.00,WUHU216HW,2013-12-16 16:31:00,
2013-12-16 09:36:00,29.3,22.0,30.53,South,180,0.0,0.0,74,0.00,,,0.00,WUHU216HW,2013-12-16 16:36:00,
2013-12-16 09:41:00,30.7,23.0,30.53,SSW,203,0.0,0.0,73,0.00,,,0.00,WUHU216HW,2013-12-16 16:41:00,
2013-12-16 09:46:00,31.2,22.9,30.53,SSW,203,0.0,0.0,71,0.00,,,0.00,WUHU216HW,2013-12-16 16:46:00,
2013-12-16 09:51:00,31.8,23.1,30.53,SW,225,0.6,0.6,70,0.00,,,0.00,WUHU216HW,2013-12-16 16:51:00,
2013-12-16 09:56:00,32.5,22.7,30.53,SW,225,1.5,2.0,67,0.00,,,0.00,WUHU216HW,2013-12-16 16:56:00,
2013-12-16 10:01:00,32.7,21.8,30.53,SW,225,1.5,2.2,64,0.00,,,0.00,WUHU216HW,2013-12-16 17:01:00,
2013-12-16 10:06:00,33.0,22.1,30.53,WSW,248,1.1,2.2,64,0.00,,,0.00,WUHU216HW,2013-12-16 17:06:00,
2013-12-16 10:11:00,33.9,22.2,30.54,WSW,248,3.1,3.1,62,0.00,,,0.00,WUHU216HW,2013-12-16 17:11:00,
2013-12-16 10:16:00,33.9,21.9,30.53,WSW,248,2.2,3.1,61,0.00,,,0.00,WUHU216HW,2013-12-16 17:16:00,
2013-12-16 10:21:00,34.3,21.9,30.54,WSW,248,2.9,3.1,60,0.00,,,0.00,WUHU216HW,2013-12-16 17:21:00,
2013-12-16 10:26:00,34.7,22.2,30.53,SW,225,2.6,2.9,60,0.00,,,0.00,WUHU216HW,2013-12-16 17:26:00,
2013-12-16 10:31:00,34.8,22.0,30.54,WSW,248,1.1,2.9,59,0.00,,,0.00,WUHU216HW,2013-12-16 17:31:00,
2013-12-16 10:36:00,35.2,22.3,30.54,SW,225,0.0,2.6,59,0.00,,,0.00,WUHU216HW,2013-12-16 17:36:00,
2013-12-16 10:41:00,35.6,22.7,30.54,WSW,248,0.6,2.4,59,0.00,,,0.00,WUHU216HW,2013-12-16 17:41:00,
2013-12-16 10:46:00,36.1,23.2,30.53,SSE,158,1.5,3.5,59,0.00,,,0.00,WUHU216HW,2013-12-16 17:46:00,
2013-12-16 10:51:00,36.1,22.8,30.54,SE,135,1.5,3.5,58,0.00,,,0.00,WUHU216HW,2013-12-16 17:51:00,
2013-12-16 10:56:00,36.3,22.5,30.53,SE,135,2.2,4.0,58,0.00,,,0.00,WUHU216HW,2013-12-16 17:56:00,
2013-12-16 11:01:00,36.1,21.9,30.53,ESE,113,3.5,4.0,56,0.00,,,0.00,WUHU216HW,2013-12-16 18:01:00,
2013-12-16 11:06:00,36.1,22.3,30.53,SE,135,2.2,3.5,57,0.00,,,0.00,WUHU216HW,2013-12-16 18:06:00,
2013-12-16 11:11:00,35.7,22.0,30.53,ESE,113,4.0,5.3,57,0.00,,,0.00,WUHU216HW,2013-12-16 18:11:00,
2013-12-16 11:16:00,35.7,22.0,30.53,ESE,113,2.4,5.3,57,0.00,,,0.00,WUHU216HW,2013-12-16 18:16:00,
2013-12-16 11:21:00,35.7,22.0,30.53,SE,135,2.6,4.0,57,0.00,,,0.00,WUHU216HW,2013-12-16 18:21:00,
2013-12-16 11:26:00,35.7,22.4,30.52,SE,135,2.0,4.6,58,0.00,,,0.00,WUHU216HW,2013-12-16 18:26:00,
2013-12-16 11:31:00,35.7,22.4,30.53,South,180,2.2,4.6,58,0.00,,,0.00,WUHU216HW,2013-12-16 18:31:00,
2013-12-16 11:36:00,35.4,21.7,30.52,ESE,113,0.0,3.1,57,0.00,,,0.00,WUHU216HW,2013-12-16 18:36:00,
2013-12-16 11:41:00,35.7,22.9,30.52,SW,225,0.0,3.5,59,0.00,,,0.00,WUHU216HW,2013-12-16 18:41:00,
2013-12-16 11:46:00,35.7,22.4,30.52,ESE,113,0.8,3.5,58,0.00,,,0.00,WUHU216HW,2013-12-16 18:46:00,
2013-12-16 11:51:00,35.7,22.4,30.51,ESE,113,1.3,2.9,58,0.00,,,0.00,WUHU216HW,2013-12-16 18:51:00,
2013-12-16 11:56:00,35.7,22.4,30.51,SE,135,4.6,4.6,58,0.00,,,0.00,WUHU216HW,2013-12-16 18:56:00,
2013-12-16 12:01:00,35.7,22.4,30.51,ESE,113,3.3,4.6,58,0.00,,,0.00,WUHU216HW,2013-12-16 19:01:00,
2013-12-16 12:06:00,35.7,22.4,30.50,ESE,113,0.0,4.6,58,0.00,,,0.00,WUHU216HW,2013-12-16 19:06:00,
2013-12-16 12:11:00,36.3,23.3,30.50,SSW,203,0.0,2.6,59,0.00,,,0.00,WUHU216HW,2013-12-16 19:11:00,
2013-12-16 12:16:00,36.6,23.7,30.50,SW,225,3.1,3.1,59,0.00,,,0.00,WUHU216HW,2013-12-16 19:16:00,
2013-12-16 12:21:00,37.2,23.7,30.50,SSW,203,1.5,3.5,58,0.00,,,0.00,WUHU216HW,2013-12-16 19:21:00,
2013-12-16 12:26:00,37.2,23.7,30.50,SSW,203,0.0,3.5,58,0.00,,,0.00,WUHU216HW,2013-12-16 19:26:00,
2013-12-16 12:31:00,37.4,23.9,30.50,ESE,113,0.0,0.8,58,0.00,,,0.00,WUHU216HW,2013-12-16 19:31:00,
2013-12-16 12:36:00,37.5,23.6,30.50,South,180,1.3,1.3,57,0.00,,,0.00,WUHU216HW,2013-12-16 19:36:00,
2013-12-16 12:41:00,37.7,23.9,30.50,SSW,203,2.6,2.6,57,0.00,,,0.00,WUHU216HW,2013-12-16 19:41:00,
2013-12-16 12:46:00,38.3,24.7,30.50,SSW,203,2.2,2.6,58,0.00,,,0.00,WUHU216HW,2013-12-16 19:46:00,
2013-12-16 12:51:00,38.8,24.8,30.50,SSW,203,1.5,2.6,57,0.00,,,0.00,WUHU216HW,2013-12-16 19:51:00,
2013-12-16 12:56:00,39.2,24.6,30.49,SSW,203,2.9,2.9,56,0.00,,,0.00,WUHU216HW,2013-12-16 19:56:00,
2013-12-16 13:01:00,39.3,24.8,30.49,SW,225,1.7,2.9,56,0.00,,,0.00,WUHU216HW,2013-12-16 20:01:00,
2013-12-16 13:06:00,39.5,25.0,30.49,SSW,203,1.1,2.9,56,0.00,,,0.00,WUHU216HW,2013-12-16 20:06:00,
2013-12-16 13:11:00,39.7,24.7,30.49,SW,225,2.4,3.8,55,0.00,,,0.00,WUHU216HW,2013-12-16 20:11:00,
2013-12-16 13:16:00,39.7,24.7,30.48,WSW,248,1.5,3.8,55,0.00,,,0.00,WUHU216HW,2013-12-16 20:16:00,
2013-12-16 13:21:00,40.1,25.3,30.49,West,270,1.1,2.4,56,0.00,,,0.00,WUHU216HW,2013-12-16 20:21:00,
2013-12-16 13:26:00,40.1,25.1,30.49,SW,225,2.2,3.5,55,0.00,,,0.00,WUHU216HW,2013-12-16 20:26:00,
2013-12-16 13:31:00,40.1,25.1,30.48,SW,225,2.9,3.5,55,0.00,,,0.00,WUHU216HW,2013-12-16 20:31:00,
2013-12-16 13:36:00,40.2,25.1,30.48,SW,225,2.4,3.3,55,0.00,,,0.00,WUHU216HW,2013-12-16 20:36:00,
2013-12-16 13:41:00,40.2,25.2,30.48,SW,225,1.1,2.6,55,0.00,,,0.00,WUHU216HW,2013-12-16 20:41:00,
2013-12-16 13:46:00,40.1,25.1,30.48,WSW,248,1.3,2.4,55,0.00,,,0.00,WUHU216HW,2013-12-16 20:46:00,
2013-12-16 13:51:00,40.1,25.1,30.47,SW,225,2.0,2.2,55,0.00,,,0.00,WUHU216HW,2013-12-16 20:51:00,
2013-12-16 13:56:00,40.2,25.2,30.47,SW,225,1.7,2.2,55,0.00,,,0.00,WUHU216HW,2013-12-16 20:56:00,
2013-12-16 14:01:00,40.2,24.8,30.47,SSE,158,1.5,2.0,54,0.00,,,0.00,WUHU216HW,2013-12-16 21:01:00,
2013-12-16 14:06:00,40.2,24.8,30.47,SW,225,3.1,3.1,54,0.00,,,0.00,WUHU216HW,2013-12-16 21:06:00,
2013-12-16 14:11:00,40.6,25.1,30.48,SW,225,1.3,3.1,54,0.00,,,0.00,WUHU216HW,2013-12-16 21:11:00,
2013-12-16 14:16:00,40.4,24.9,30.47,SW,225,3.3,3.3,54,0.00,,,0.00,WUHU216HW,2013-12-16 21:16:00,
2013-12-16 14:21:00,40.4,24.9,30.48,South,180,1.5,3.3,54,0.00,,,0.00,WUHU216HW,2013-12-16 21:21:00,
2013-12-16 14:26:00,40.2,24.8,30.48,SE,135,2.4,2.9,54,0.00,,,0.00,WUHU216HW,2013-12-16 21:26:00,
2013-12-16 14:31:00,40.2,24.8,30.48,SE,135,1.3,2.4,54,0.00,,,0.00,WUHU216HW,2013-12-16 21:31:00,
2013-12-16 14:36:00,40.2,24.3,30.48,ESE,113,2.9,2.9,53,0.00,,,0.00,WUHU216HW,2013-12-16 21:36:00,
2013-12-16 14:41:00,40.1,23.7,30.48,ESE,113,2.0,2.9,52,0.00,,,0.00,WUHU216HW,2013-12-16 21:41:00,
2013-12-16 14:46:00,39.9,23.6,30.48,East,90,1.3,2.9,52,0.00,,,0.00,WUHU216HW,2013-12-16 21:46:00,
2013-12-16 14:51:00,39.9,24.0,30.48,ESE,113,2.0,2.0,53,0.00,,,0.00,WUHU216HW,2013-12-16 21:51:00,
2013-12-16 14:56:00,39.9,23.6,30.48,ESE,113,0.0,2.0,52,0.00,,,0.00,WUHU216HW,2013-12-16 21:56:00,
2013-12-16 15:01:00,39.9,24.0,30.48,ESE,113,1.5,2.0,53,0.00,,,0.00,WUHU216HW,2013-12-16 22:01:00,
2013-12-16 15:06:00,39.9,24.0,30.48,ESE,113,0.8,1.5,53,0.00,,,0.00,WUHU216HW,2013-12-16 22:06:00,
2013-12-16 15:11:00,40.1,24.2,30.48,ESE,113,0.0,1.5,53,0.00,,,0.00,WUHU216HW,2013-12-16 22:11:00,
2013-12-16 15:16:00,40.2,24.3,30.48,SSW,203,1.7,1.7,53,0.00,,,0.00,WUHU216HW,2013-12-16 22:16:00,
2013-12-16 15:21:00,40.4,24.5,30.48,South,180,1.1,2.0,53,0.00,,,0.00,WUHU216HW,2013-12-16 22:21:00,
2013-12-16 15:26:00,40.2,24.3,30.49,ESE,113,1.5,2.0,53,0.00,,,0.00,WUHU216HW,2013-12-16 22:26:00,
2013-12-16 15:31:00,40.1,24.2,30.48,ESE,113,0.8,1.5,53,0.00,,,0.00,WUHU216HW,2013-12-16 22:31:00,
2013-12-16 15:36:00,39.9,24.0,30.49,SSW,203,0.0,1.5,53,0.00,,,0.00,WUHU216HW,2013-12-16 22:36:00,
2013-12-16 15:41:00,39.9,24.4,30.49,SSW,203,0.0,0.8,54,0.00,,,0.00,WUHU216HW,2013-12-16 22:41:00,
2013-12-16 15:46:00,39.3,23.9,30.49,ESE,113,1.1,1.3,54,0.00,,,0.00,WUHU216HW,2013-12-16 22:46:00,
2013-12-16 15:51:00,39.0,23.2,30.49,SE,135,0.0,1.3,53,0.00,,,0.00,WUHU216HW,2013-12-16 22:51:00,
2013-12-16 15:56:00,38.8,23.5,30.49,ESE,113,0.0,1.1,54,0.00,,,0.00,WUHU216HW,2013-12-16 22:56:00,
2013-12-16 16:01:00,38.4,23.1,30.50,ESE,113,1.3,1.3,54,0.00,,,0.00,WUHU216HW,2013-12-16 23:01:00,
2013-12-16 16:06:00,38.3,23.0,30.50,ESE,113,0.0,1.3,54,0.00,,,0.00,WUHU216HW,2013-12-16 23:06:00,
2013-12-16 16:11:00,38.1,22.8,30.49,ESE,113,0.0,1.3,54,0.00,,,0.00,WUHU216HW,2013-12-16 23:11:00,
2013-12-16 16:16:00,37.7,23.3,30.50,East,90,0.0,0.0,56,0.00,,,0.00,WUHU216HW,2013-12-16 23:16:00,
2013-12-16 16:21:00,37.9,23.5,30.49,East,90,0.0,0.0,56,0.00,,,0.00,WUHU216HW,2013-12-16 23:21:00,
2013-12-16 16:26:00,37.7,23.3,30.50,East,90,0.0,0.0,56,0.00,,,0.00,WUHU216HW,2013-12-16 23:26:00,
2013-12-16 16:31:00,37.5,23.6,30.50,East,90,0.0,0.0,57,0.00,,,0.00,WUHU216HW,2013-12-16 23:31:00,
2013-12-16 16:36:00,37.5,23.6,30.50,East,90,0.0,0.0,57,0.00,,,0.00,WUHU216HW,2013-12-16 23:36:00,
2013-12-16 16:41:00,37.5,23.6,30.50,ESE,113,0.0,0.0,57,0.00,,,0.00,WUHU216HW,2013-12-16 23:41:00,
2013-12-16 16:46:00,37.2,23.3,30.49,ESE,113,0.0,0.0,57,0.00,,,0.00,WUHU216HW,2013-12-16 23:46:00,
2013-12-16 16:51:00,37.0,23.1,30.49,ESE,113,0.0,0.0,57,0.00,,,0.00,WUHU216HW,2013-12-16 23:51:00,
2013-12-16 16:56:00,36.6,22.8,30.49,East,90,0.0,0.0,57,0.00,,,0.00,WUHU216HW,2013-12-16 23:56:00,
2013-12-16 17:01:00,36.1,22.3,30.50,East,90,0.0,0.0,57,0.00,,,0.00,WUHU216HW,2013-12-17 00:01:00,
2013-12-16 17:06:00,35.9,22.6,30.49,East,90,0.0,0.0,58,0.00,,,0.00,WUHU216HW,2013-12-17 00:06:00,
2013-12-16 17:11:00,35.7,22.4,30.49,East,90,0.0,0.0,58,0.00,,,0.00,WUHU216HW,2013-12-17 00:11:00,
2013-12-16 17:16:00,35.2,21.9,30.49,East,90,0.0,0.0,58,0.00,,,0.00,WUHU216HW,2013-12-17 00:16:00,
2013-12-16 17:21:00,34.8,22.0,30.50,East,90,0.0,0.0,59,0.00,,,0.00,WUHU216HW,2013-12-17 00:21:00,
2013-12-16 17:26:00,34.5,21.6,30.50,East,90,0.0,0.0,59,0.00,,,0.00,WUHU216HW,2013-12-17 00:26:00,
2013-12-16 17:31:00,34.1,21.3,30.50,ESE,113,0.0,0.0,59,0.00,,,0.00,WUHU216HW,2013-12-17 00:31:00,
2013-12-16 17:36:00,33.6,20.7,30.49,ESE,113,0.0,0.0,59,0.00,,,0.00,WUHU216HW,2013-12-17 00:36:00,
2013-12-16 17:41:00,33.4,20.6,30.50,ESE,113,0.0,0.0,59,0.00,,,0.00,WUHU216HW,2013-12-17 00:41:00,
2013-12-16 17:46:00,32.7,20.4,30.50,ESE,113,0.0,0.0,60,0.00,,,0.00,WUHU216HW,2013-12-17 00:46:00,
2013-12-16 17:51:00,32.5,20.2,30.50,ESE,113,0.0,0.0,60,0.00,,,0.00,WUHU216HW,2013-12-17 00:51:00,
2013-12-16 17:56:00,32.1,20.2,30.50,ESE,113,0.0,0.0,61,0.00,,,0.00,WUHU216HW,2013-12-17 00:56:00,
2013-12-16 18:01:00,31.8,19.9,30.50,ESE,113,0.0,0.0,61,0.00,,,0.00,WUHU216HW,2013-12-17 01:01:00,
2013-12-16 18:06:00,31.6,19.7,30.50,ESE,113,0.0,0.0,61,0.00,,,0.00,WUHU216HW,2013-12-17 01:06:00,
2013-12-16 18:11:00,31.2,19.7,30.50,ESE,113,0.0,0.0,62,0.00,,,0.00,WUHU216HW,2013-12-17 01:11:00,
2013-12-16 18:16:00,31.1,19.5,30.50,ESE,113,0.0,0.0,62,0.00,,,0.00,WUHU216HW,2013-12-17 01:16:00,
2013-12-16 18:21:00,30.9,19.7,30.50,ESE,113,0.0,0.0,63,0.00,,,0.00,WUHU216HW,2013-12-17 01:21:00,
2013-12-16 18:25:00,30.7,19.5,30.50,ESE,113,0.0,0.0,63,0.00,,,0.00,WUHU216HW,2013-12-17 01:25:00,
2013-12-16 18:30:00,30.7,19.5,30.50,ESE,113,0.0,0.0,63,0.00,,,0.00,WUHU216HW,2013-12-17 01:30:00,
2013-12-16 18:35:00,30.5,19.7,30.50,ESE,113,0.0,0.0,64,0.00,,,0.00,WUHU216HW,2013-12-17 01:35:00,
2013-12-16 18:40:00,30.3,19.5,30.50,ESE,113,0.0,0.0,64,0.00,,,0.00,WUHU216HW,2013-12-17 01:40:00,
2013-12-16 18:45:00,30.0,18.8,30.50,ESE,113,0.0,0.0,63,0.00,,,0.00,WUHU216HW,2013-12-17 01:45:00,
2013-12-16 18:50:00,29.8,19.0,30.51,East,90,0.0,0.0,64,0.00,,,0.00,WUHU216HW,2013-12-17 01:50:00,
2013-12-16 18:55:00,29.3,18.5,30.51,East,90,0.0,0.0,64,0.00,,,0.00,WUHU216HW,2013-12-17 01:55:00,
2013-12-16 19:00:00,28.9,18.6,30.51,East,90,0.0,0.0,65,0.00,,,0.00,WUHU216HW,2013-12-17 02:00:00,
2013-12-16 19:05:00,28.5,18.3,30.51,ESE,113,0.0,0.0,65,0.00,,,0.00,WUHU216HW,2013-12-17 02:05:00,
2013-12-16 19:10:00,28.5,18.3,30.51,East,90,0.0,0.0,65,0.00,,,0.00,WUHU216HW,2013-12-17 02:10:00,
2013-12-16 19:15:00,28.4,18.1,30.52,ESE,113,0.0,0.0,65,0.00,,,0.00,WUHU216HW,2013-12-17 02:15:00,
2013-12-16 19:20:00,28.2,17.9,30.51,ESE,113,0.0,0.0,65,0.00,,,0.00,WUHU216HW,2013-12-17 02:20:00,
2013-12-16 19:25:00,28.2,18.3,30.51,ESE,113,0.0,0.0,66,0.00,,,0.00,WUHU216HW,2013-12-17 02:25:00,
2013-12-16 19:30:00,28.2,18.3,30.51,ESE,113,0.0,0.0,66,0.00,,,0.00,WUHU216HW,2013-12-17 02:30:00,
2013-12-16 19:35:00,28.2,18.3,30.51,ESE,113,0.0,0.0,66,0.00,,,0.00,WUHU216HW,2013-12-17 02:35:00,
2013-12-16 19:40:00,28.0,18.5,30.52,ESE,113,0.0,0.0,67,0.00,,,0.00,WUHU216HW,2013-12-17 02:40:00,
2013-12-16 19:45:00,28.0,18.5,30.51,ESE,113,0.0,0.0,67,0.00,,,0.00,WUHU216HW,2013-12-17 02:45:00,
2013-12-16 19:50:00,28.0,18.5,30.51,ESE,113,0.0,0.0,67,0.00,,,0.00,WUHU216HW,2013-12-17 02:50:00,
2013-12-16 19:55:00,27.6,18.1,30.52,ESE,113,0.0,0.0,67,0.00,,,0.00,WUHU216HW,2013-12-17 02:55:00,
2013-12-16 20:00:00,27.6,18.1,30.51,ESE,113,0.0,0.0,67,0.00,,,0.00,WUHU216HW,2013-12-17 03:00:00,
2013-12-16 20:05:00,27.5,17.9,30.51,ESE,113,0.0,0.0,67,0.00,,,0.00,WUHU216HW,2013-12-17 03:05:00,
2013-12-16 20:10:00,27.3,17.7,30.51,ESE,113,0.0,0.0,67,0.00,,,0.00,WUHU216HW,2013-12-17 03:10:00,
2013-12-16 20:15:00,27.1,17.9,30.51,ESE,113,0.0,0.0,68,0.00,,,0.00,WUHU216HW,2013-12-17 03:15:00,
2013-12-16 20:20:00,27.1,17.9,30.51,ESE,113,0.0,0.0,68,0.00,,,0.00,WUHU216HW,2013-12-17 03:20:00,
2013-12-16 20:25:00,27.1,18.3,30.51,ESE,113,0.0,0.0,69,0.00,,,0.00,WUHU216HW,2013-12-17 03:25:00,
2013-12-16 20:30:00,26.7,17.9,30.51,ESE,113,0.0,0.0,69,0.00,,,0.00,WUHU216HW,2013-12-17 03:30:00,
2013-12-16 20:35:00,26.6,17.7,30.51,ESE,113,0.0,0.0,69,0.00,,,0.00,WUHU216HW,2013-12-17 03:35:00,
2013-12-16 20:40:00,26.6,17.7,30.51,ESE,113,0.0,0.0,69,0.00,,,0.00,WUHU216HW,2013-12-17 03:40:00,
2013-12-16 20:45:00,26.6,17.7,30.51,ESE,113,0.0,0.0,69,0.00,,,0.00,WUHU216HW,2013-12-17 03:45:00,
2013-12-16 20:50:00,26.6,17.7,30.52,ESE,113,0.0,0.0,69,0.00,,,0.00,WUHU216HW,2013-12-17 03:50:00,
2013-12-16 20:55:00,26.7,17.9,30.51,East,90,0.0,0.0,69,0.00,,,0.00,WUHU216HW,2013-12-17 03:55:00,
2013-12-16 21:00:00,26.4,17.9,30.52,ESE,113,0.0,0.0,70,0.00,,,0.00,WUHU216HW,2013-12-17 04:00:00,
2013-12-16 21:05:00,26.2,17.7,30.52,ESE,113,0.0,0.0,70,0.00,,,0.00,WUHU216HW,2013-12-17 04:05:00,
2013-12-16 21:10:00,25.8,17.4,30.52,ESE,113,0.0,0.0,70,0.00,,,0.00,WUHU216HW,2013-12-17 04:10:00,
2013-12-16 21:15:00,25.7,17.2,30.52,ESE,113,0.0,0.0,70,0.00,,,0.00,WUHU216HW,2013-12-17 04:15:00,
2013-12-16 21:20:00,25.5,17.0,30.52,ESE,113,0.0,0.0,70,0.00,,,0.00,WUHU216HW,2013-12-17 04:20:00,
2013-12-16 21:25:00,25.5,17.0,30.52,ESE,113,0.0,0.0,70,0.00,,,0.00,WUHU216HW,2013-12-17 04:25:00,
2013-12-16 21:30:00,25.5,17.3,30.52,ESE,113,0.0,0.0,71,0.00,,,0.00,WUHU216HW,2013-12-17 04:30:00,
2013-12-16 21:35:00,25.5,17.3,30.53,ESE,113,0.0,0.0,71,0.00,,,0.00,WUHU216HW,2013-12-17 04:35:00,
2013-12-16 21:40:00,25.5,17.3,30.53,ESE,113,0.0,0.0,71,0.00,,,0.00,WUHU216HW,2013-12-17 04:40:00,
2013-12-16 21:45:00,25.5,17.3,30.53,ESE,113,0.0,0.0,71,0.00,,,0.00,WUHU216HW,2013-12-17 04:45:00,
2013-12-16 21:50:00,25.5,17.3,30.53,ESE,113,0.0,0.0,71,0.00,,,0.00,WUHU216HW,2013-12-17 04:50:00,
2013-12-16 21:55:00,25.1,17.0,30.53,ESE,113,0.0,0.0,71,0.00,,,0.00,WUHU216HW,2013-12-17 04:55:00,
2013-12-16 22:00:00,25.1,17.0,30.53,ESE,113,0.0,0.0,71,0.00,,,0.00,WUHU216HW,2013-12-17 05:00:00,
2013-12-16 22:01:00,25.1,17.0,30.53,ESE,113,0.0,0.0,71,0.00,,,0.00,WUHU216HW,2013-12-17 05:01:00,
2013-12-16 22:02:00,25.1,17.0,30.53,ESE,113,0.0,0.0,71,0.00,,,0.00,WUHU216HW,2013-12-17 05:02:00,
2013-12-16 22:07:00,24.9,17.1,30.53,ESE,113,0.0,0.0,72,0.00,,,0.00,WUHU216HW,2013-12-17 05:07:00,
2013-12-16 22:12:00,24.9,17.1,30.53,ESE,113,0.0,0.0,72,0.00,,,0.00,WUHU216HW,2013-12-17 05:12:00,
2013-12-16 22:17:00,24.8,16.9,30.53,ESE,113,0.0,0.0,72,0.00,,,0.00,WUHU216HW,2013-12-17 05:17:00,
2013-12-16 22:22:00,24.6,16.8,30.53,ESE,113,0.0,0.0,72,0.00,,,0.00,WUHU216HW,2013-12-17 05:22:00,
2013-12-16 22:27:00,24.6,16.8,30.53,ESE,113,0.0,0.0,72,0.00,,,0.00,WUHU216HW,2013-12-17 05:27:00,
2013-12-16 22:32:00,24.6,16.8,30.53,ESE,113,0.0,0.0,72,0.00,,,0.00,WUHU216HW,2013-12-17 05:32:00,
2013-12-16 22:37:00,24.6,16.8,30.54,ESE,113,0.0,0.0,72,0.00,,,0.00,WUHU216HW,2013-12-17 05:37:00,
2013-12-16 22:42:00,24.6,16.8,30.53,ESE,113,0.0,0.0,72,0.00,,,0.00,WUHU216HW,2013-12-17 05:42:00,
2013-12-16 22:47:00,24.6,16.8,30.54,ESE,113,0.0,0.0,72,0.00,,,0.00,WUHU216HW,2013-12-17 05:47:00,
2013-12-16 22:52:00,24.6,16.8,30.54,SE,135,0.0,0.0,72,0.00,,,0.00,WUHU216HW,2013-12-17 05:52:00,
2013-12-16 22:57:00,24.4,16.6,30.54,ESE,113,0.0,0.0,72,0.00,,,0.00,WUHU216HW,2013-12-17 05:57:00,
2013-12-16 23:02:00,24.4,16.6,30.53,ESE,113,0.0,0.0,72,0.00,,,0.00,WUHU216HW,2013-12-17 06:02:00,
2013-12-16 23:07:00,24.4,16.6,30.54,ESE,113,0.0,0.0,72,0.00,,,0.00,WUHU216HW,2013-12-17 06:07:00,
2013-12-16 23:12:00,24.2,16.4,30.54,SE,135,0.0,0.0,72,0.00,,,0.00,WUHU216HW,2013-12-17 06:12:00,
2013-12-16 23:17:00,24.0,16.3,30.54,ESE,113,0.0,0.0,72,0.00,,,0.00,WUHU216HW,2013-12-17 06:17:00,
2013-12-16 23:22:00,24.0,16.3,30.54,ESE,113,0.0,0.0,72,0.00,,,0.00,WUHU216HW,2013-12-17 06:22:00,
2013-12-16 23:27:00,23.9,16.4,30.54,ESE,113,0.0,0.0,73,0.00,,,0.00,WUHU216HW,2013-12-17 06:27:00,
2013-12-16 23:32:00,24.0,16.6,30.54,ESE,113,0.0,0.0,73,0.00,,,0.00,WUHU216HW,2013-12-17 06:32:00,
2013-12-16 23:37:00,24.0,16.6,30.54,ESE,113,0.0,0.0,73,0.00,,,0.00,WUHU216HW,2013-12-17 06:37:00,
2013-12-16 23:42:00,24.0,16.6,30.54,ESE,113,0.0,0.0,73,0.00,,,0.00,WUHU216HW,2013-12-17 06:42:00,
2013-12-16 23:47:00,24.0,16.6,30.54,ESE,113,0.0,0.0,73,0.00,,,0.00,WUHU216HW,2013-12-17 06:47:00,
2013-12-16 23:52:00,24.0,16.6,30.54,ESE,113,0.0,0.0,73,0.00,,,0.00,WUHU216HW,2013-12-17 06:52:00,
2013-12-16 23:57:00,24.0,16.6,30.54,ESE,113,0.0,0.0,73,0.00,,,0.00,WUHU216HW,2013-12-17 06:57:00,